DAL2606 KLAX-KSEA

Flight info

Callsign DAL2606
Flight time N/A
Altitude 36000
Route LADYJ4 CSTRO SHIMR LKV HAWKZ8
Aircraft B738/M-SDE2E3FGHIRWXY/LB1

Departure

Time 2026-04-26 01:20
Airport Los Angeles International Airport (KLAX)

Arrival

Time N/A
Airport Seattle–Tacoma International Airport (KSEA)
Time Latitude Longitude Altitude Speed Heading
2026-04-26 01:01 33.94599 -118.40644 125 ft 0 kts 303°
2026-04-26 01:10 33.94593 -118.40632 125 ft 3 kts 307°
2026-04-26 01:10 33.94579 -118.40616 119 ft 3 kts 334°
2026-04-26 01:10 33.94561 -118.40610 123 ft 3 kts
2026-04-26 01:11 33.94542 -118.40614 123 ft 3 kts 22°
2026-04-26 01:11 33.94533 -118.40618 135 ft 0 kts 38°
2026-04-26 01:11 33.94572 -118.40582 122 ft 0 kts 38°
2026-04-26 01:15 33.94573 -118.40581 123 ft 3 kts 38°
2026-04-26 01:15 33.94623 -118.40560 123 ft 8 kts 358°
2026-04-26 01:15 33.94682 -118.40572 123 ft 9 kts 349°
2026-04-26 01:16 33.94740 -118.40583 122 ft 8 kts 352°
2026-04-26 01:16 33.94753 -118.40585 123 ft 10 kts 352°
2026-04-26 01:16 33.94835 -118.40600 123 ft 12 kts 359°
2026-04-26 01:16 33.94873 -118.40523 125 ft 12 kts 81°
2026-04-26 01:17 33.94883 -118.40424 124 ft 12 kts 82°
2026-04-26 01:17 33.94894 -118.40325 125 ft 13 kts 83°
2026-04-26 01:17 33.94901 -118.40245 123 ft 15 kts 83°
2026-04-26 01:17 33.94914 -118.40122 125 ft 15 kts 83°
2026-04-26 01:18 33.94925 -118.40008 125 ft 15 kts 83°
2026-04-26 01:18 33.94950 -118.39932 123 ft 3 kts 46°
2026-04-26 01:18 33.94951 -118.39931 123 ft 0 kts 46°
2026-04-26 01:19 33.94953 -118.39929 124 ft 2 kts 42°
2026-04-26 01:19 33.94988 -118.39914 121 ft 11 kts
2026-04-26 01:19 33.95038 -118.39959 123 ft 10 kts 275°
2026-04-26 01:19 33.95026 -118.40106 125 ft 44 kts 263°
2026-04-26 01:20 33.94948 -118.40828 123 ft 127 kts 264°
2026-04-26 01:20 33.94826 -118.42153 332 ft 182 kts 263°
2026-04-26 01:20 33.94680 -118.43760 1185 ft 200 kts 263°
2026-04-26 01:20 33.94509 -118.45427 2218 ft 204 kts 262°
2026-04-26 01:21 33.94339 -118.47119 3238 ft 204 kts 265°
2026-04-26 01:21 33.94271 -118.48824 4201 ft 205 kts 267°
2026-04-26 01:21 33.94222 -118.50706 4384 ft 245 kts 268°
2026-04-26 01:21 33.94095 -118.52888 4560 ft 278 kts 264°
2026-04-26 01:22 33.93897 -118.55318 5064 ft 295 kts 264°
2026-04-26 01:22 33.93698 -118.57737 6478 ft 285 kts 264°
2026-04-26 01:22 33.93518 -118.60067 7864 ft 284 kts 266°
2026-04-26 01:22 33.93845 -118.62563 7986 ft 325 kts 291°
2026-04-26 01:23 33.95242 -118.64897 8022 ft 365 kts 316°
2026-04-26 01:23 33.97338 -118.66616 8003 ft 359 kts 327°
2026-04-26 01:23 33.99601 -118.67719 7980 ft 347 kts 348°
2026-04-26 01:23 34.01966 -118.67691 8041 ft 332 kts
2026-04-26 01:24 34.04210 -118.67463 8217 ft 316 kts
2026-04-26 01:24 34.06353 -118.67292 8549 ft 301 kts 360°
2026-04-26 01:24 34.08417 -118.67106 9314 ft 299 kts
2026-04-26 01:24 34.10477 -118.66669 10118 ft 301 kts
2026-04-26 01:25 34.12537 -118.66141 10849 ft 305 kts
2026-04-26 01:25 34.14631 -118.65600 11537 ft 310 kts
2026-04-26 01:25 34.16754 -118.65072 12238 ft 314 kts
2026-04-26 01:25 34.18911 -118.64552 12947 ft 318 kts
2026-04-26 01:26 34.21099 -118.64032 13669 ft 322 kts
2026-04-26 01:26 34.23312 -118.63551 14292 ft 324 kts
2026-04-26 01:26 34.25562 -118.63502 14908 ft 322 kts 348°
2026-04-26 01:26 34.27769 -118.63925 15520 ft 323 kts 343°
2026-04-26 01:27 34.29994 -118.64456 16123 ft 328 kts 342°
2026-04-26 01:27 34.32247 -118.65004 16735 ft 333 kts 343°
2026-04-26 01:27 34.34536 -118.65551 17338 ft 338 kts 343°
2026-04-26 01:27 34.36860 -118.66092 17909 ft 343 kts 343°
2026-04-26 01:28 34.39221 -118.66633 18496 ft 347 kts 344°
2026-04-26 01:28 34.41605 -118.67176 19051 ft 350 kts 343°
2026-04-26 01:28 34.44011 -118.67708 19589 ft 354 kts 344°
2026-04-26 01:28 34.46459 -118.68195 20110 ft 359 kts 345°
2026-04-26 01:29 34.48906 -118.68662 20648 ft 362 kts 345°
2026-04-26 01:29 34.51412 -118.69139 21187 ft 366 kts 345°
2026-04-26 01:29 34.53939 -118.69624 21721 ft 370 kts 345°
2026-04-26 01:29 34.56498 -118.70119 22268 ft 373 kts 345°
2026-04-26 01:30 34.59078 -118.70622 22754 ft 378 kts 345°
2026-04-26 01:30 34.61688 -118.71131 23298 ft 381 kts 345°
2026-04-26 01:30 34.64318 -118.71645 23766 ft 384 kts 345°
2026-04-26 01:30 34.66967 -118.72164 24198 ft 387 kts 345°
2026-04-26 01:31 34.69631 -118.72689 24648 ft 389 kts 343°
2026-04-26 01:31 34.72231 -118.73507 25052 ft 384 kts 333°
2026-04-26 01:31 34.74638 -118.74845 25450 ft 379 kts 324°
2026-04-26 01:31 34.76946 -118.76417 25890 ft 380 kts 323°
2026-04-26 01:32 34.79243 -118.78025 26318 ft 382 kts 323°
2026-04-26 01:32 34.81547 -118.79643 26772 ft 383 kts 322°
2026-04-26 01:32 34.83863 -118.81263 27204 ft 385 kts 323°
2026-04-26 01:32 34.86202 -118.82891 27515 ft 390 kts 323°
2026-04-26 01:33 34.88571 -118.84533 27878 ft 393 kts 323°
2026-04-26 01:33 34.90958 -118.86179 28281 ft 395 kts 323°
2026-04-26 01:33 34.93350 -118.87826 28687 ft 397 kts 323°
2026-04-26 01:33 34.95766 -118.89490 29022 ft 400 kts 323°
2026-04-26 01:34 34.98193 -118.91165 29352 ft 403 kts 323°
2026-04-26 01:34 35.00648 -118.92865 29661 ft 406 kts 323°
2026-04-26 01:34 35.03113 -118.94564 30020 ft 408 kts 323°
2026-04-26 01:34 35.05588 -118.96267 30344 ft 409 kts 323°
2026-04-26 01:35 35.08072 -118.97972 30650 ft 411 kts 323°
2026-04-26 01:35 35.10571 -118.99693 30939 ft 412 kts 324°
2026-04-26 01:35 35.13073 -119.01422 31219 ft 414 kts 324°
2026-04-26 01:35 35.15581 -119.03159 31498 ft 416 kts 324°
2026-04-26 01:36 35.18106 -119.04909 31776 ft 418 kts 324°
2026-04-26 01:36 35.20639 -119.06667 32048 ft 419 kts 324°
2026-04-26 01:36 35.23178 -119.08429 32317 ft 421 kts 324°
2026-04-26 01:37 35.28289 -119.11981 32847 ft 424 kts 324°
2026-04-26 01:37 35.30853 -119.13765 33094 ft 425 kts 324°
2026-04-26 01:37 35.33431 -119.15561 33337 ft 427 kts 324°
2026-04-26 01:37 35.36015 -119.17363 33561 ft 428 kts 324°
2026-04-26 01:38 35.38613 -119.19175 33811 ft 430 kts 324°
2026-04-26 01:38 35.41217 -119.20991 34012 ft 431 kts 324°
2026-04-26 01:38 35.43850 -119.22781 34185 ft 435 kts 328°
2026-04-26 01:38 35.46681 -119.24181 34349 ft 444 kts 339°
2026-04-26 01:39 35.49684 -119.25145 34525 ft 448 kts 341°
2026-04-26 01:39 35.52727 -119.26026 34700 ft 450 kts 342°
2026-04-26 01:39 35.55789 -119.26885 34869 ft 452 kts 342°
2026-04-26 01:39 35.58814 -119.27738 35035 ft 453 kts 342°
2026-04-26 01:40 35.61890 -119.28620 35202 ft 454 kts 341°
2026-04-26 01:40 35.64965 -119.29517 35365 ft 455 kts 341°
2026-04-26 01:40 35.68048 -119.30429 35524 ft 456 kts 341°
2026-04-26 01:40 35.71137 -119.31350 35674 ft 458 kts 341°
2026-04-26 01:41 35.74238 -119.32280 35840 ft 459 kts 341°
2026-04-26 01:41 35.80463 -119.34154 35909 ft 463 kts 341°
2026-04-26 01:42 35.86707 -119.36033 35909 ft 460 kts 341°
2026-04-26 01:42 35.92904 -119.37898 35903 ft 457 kts 341°
2026-04-26 01:43 35.99064 -119.39757 35902 ft 455 kts 341°
2026-04-26 01:43 36.05205 -119.41614 35899 ft 454 kts 341°
2026-04-26 01:44 36.11329 -119.43469 35902 ft 453 kts 342°
2026-04-26 01:44 36.17461 -119.45330 35904 ft 454 kts 342°
2026-04-26 01:45 36.23611 -119.47199 35910 ft 456 kts 342°
2026-04-26 01:45 36.29781 -119.49078 35905 ft 458 kts 342°
2026-04-26 01:46 36.35986 -119.50969 35905 ft 460 kts 342°
2026-04-26 01:46 36.42202 -119.52867 35901 ft 461 kts 342°
2026-04-26 01:47 36.48440 -119.54774 35896 ft 462 kts 342°
2026-04-26 01:47 36.54684 -119.56686 35892 ft 462 kts 342°
2026-04-26 01:48 36.60933 -119.58603 35896 ft 462 kts 342°
2026-04-26 01:48 36.67171 -119.60520 35895 ft 462 kts 342°
2026-04-26 01:49 36.73404 -119.62438 35899 ft 461 kts 342°
2026-04-26 01:49 36.79616 -119.64355 35911 ft 467 kts 342°
2026-04-26 01:50 36.85986 -119.66326 35911 ft 476 kts 342°
2026-04-26 01:50 36.92479 -119.68337 35910 ft 485 kts 343°
2026-04-26 01:51 36.99078 -119.70382 35908 ft 492 kts 343°
2026-04-26 01:51 37.05746 -119.72451 35897 ft 495 kts 343°
2026-04-26 01:52 37.12438 -119.74531 35880 ft 493 kts 343°
2026-04-26 01:52 37.19055 -119.76589 35887 ft 487 kts 343°
2026-04-26 01:53 37.25627 -119.78641 35894 ft 486 kts 343°
2026-04-26 01:53 37.32174 -119.80690 35900 ft 485 kts 343°
2026-04-26 01:54 37.38719 -119.82742 35896 ft 485 kts 343°
2026-04-26 01:54 37.45260 -119.84796 35891 ft 484 kts 343°
2026-04-26 01:55 37.51803 -119.86854 35900 ft 485 kts 343°
2026-04-26 01:55 37.58349 -119.88916 35892 ft 485 kts 343°
2026-04-26 01:56 37.64892 -119.90981 35904 ft 485 kts 343°
2026-04-26 01:56 37.71444 -119.93053 35894 ft 486 kts 343°
2026-04-26 01:57 37.77996 -119.95137 35881 ft 486 kts 343°
2026-04-26 01:57 37.84548 -119.97224 35882 ft 485 kts 343°
2026-04-26 01:58 37.91102 -119.99307 35889 ft 485 kts 343°
2026-04-26 01:58 37.97640 -120.01389 35876 ft 485 kts 343°
2026-04-26 01:59 38.04143 -120.03464 35877 ft 485 kts 343°
2026-04-26 01:59 38.10681 -120.05554 35875 ft 484 kts 343°
2026-04-26 02:00 38.17257 -120.07660 35875 ft 483 kts 343°
2026-04-26 02:00 38.23746 -120.09649 35872 ft 484 kts 348°
2026-04-26 02:01 38.30467 -120.10427 35872 ft 486 kts 354°
2026-04-26 02:01 38.36115 -120.10860 35879 ft 485 kts 354°
2026-04-26 02:02 38.43942 -120.11488 35878 ft 484 kts 353°
2026-04-26 02:02 38.49571 -120.11983 35864 ft 484 kts 353°
2026-04-26 02:03 38.56284 -120.12597 35861 ft 483 kts 353°
2026-04-26 02:03 38.62994 -120.13215 35859 ft 483 kts 353°
2026-04-26 02:04 38.69695 -120.13832 35860 ft 483 kts 353°
2026-04-26 02:04 38.76365 -120.14446 35858 ft 483 kts 353°
2026-04-26 02:05 38.83070 -120.15063 35859 ft 483 kts 353°
2026-04-26 02:05 38.89778 -120.15682 35853 ft 484 kts 353°
2026-04-26 02:06 38.96498 -120.16302 35855 ft 484 kts 353°
2026-04-26 02:06 39.03218 -120.16925 35851 ft 484 kts 353°
2026-04-26 02:07 39.09935 -120.17548 35841 ft 485 kts 353°
2026-04-26 02:07 39.16660 -120.18173 35850 ft 484 kts 353°
2026-04-26 02:08 39.23391 -120.18799 35863 ft 485 kts 353°
2026-04-26 02:08 39.30112 -120.19426 35861 ft 484 kts 353°
2026-04-26 02:09 39.36637 -120.20036 35866 ft 484 kts 353°
2026-04-26 02:09 39.43307 -120.20661 35847 ft 484 kts 353°
2026-04-26 02:10 39.50014 -120.21290 35831 ft 483 kts 353°
2026-04-26 02:10 39.56715 -120.21920 35800 ft 483 kts 353°
2026-04-26 02:11 39.63413 -120.22551 35773 ft 482 kts 353°
2026-04-26 02:11 39.70106 -120.23183 35770 ft 482 kts 353°
2026-04-26 02:12 39.76805 -120.23817 35776 ft 482 kts 352°
2026-04-26 02:12 39.83494 -120.24451 35759 ft 483 kts 352°
2026-04-26 02:13 39.90206 -120.25088 35750 ft 483 kts 352°
2026-04-26 02:13 39.96916 -120.25727 35747 ft 484 kts 352°
2026-04-26 02:14 40.03634 -120.26367 35752 ft 484 kts 352°
2026-04-26 02:14 40.10354 -120.27008 35744 ft 485 kts 352°
2026-04-26 02:15 40.17080 -120.27652 35751 ft 484 kts 352°
2026-04-26 02:15 40.23808 -120.28297 35757 ft 485 kts 352°
2026-04-26 02:16 40.30536 -120.28943 35759 ft 484 kts 352°
2026-04-26 02:16 40.37250 -120.29589 35761 ft 484 kts 352°
2026-04-26 02:17 40.43963 -120.30237 35762 ft 483 kts 352°
2026-04-26 02:17 40.50662 -120.30884 35755 ft 483 kts 352°
2026-04-26 02:18 40.57353 -120.31532 35748 ft 482 kts 351°
2026-04-26 02:18 40.63998 -120.32177 35737 ft 481 kts 351°
2026-04-26 02:19 40.70718 -120.32830 35726 ft 480 kts 351°
2026-04-26 02:19 40.77336 -120.33475 35731 ft 480 kts 351°
2026-04-26 02:20 40.83990 -120.34124 35739 ft 479 kts 351°
2026-04-26 02:20 40.90639 -120.34775 35738 ft 479 kts 351°
2026-04-26 02:21 40.97282 -120.35426 35739 ft 478 kts 351°
2026-04-26 02:21 41.03909 -120.36077 35737 ft 478 kts 351°
2026-04-26 02:22 41.10540 -120.36730 35748 ft 478 kts 351°
2026-04-26 02:22 41.17173 -120.37384 35751 ft 478 kts 351°
2026-04-26 02:23 41.23810 -120.38040 35752 ft 478 kts 351°
2026-04-26 02:23 41.30439 -120.38696 35755 ft 478 kts 351°
2026-04-26 02:24 41.37066 -120.39354 35761 ft 477 kts 351°
2026-04-26 02:24 41.43690 -120.40012 35767 ft 477 kts 351°
2026-04-26 02:25 41.50315 -120.40672 35772 ft 477 kts 351°
2026-04-26 02:25 41.56938 -120.41333 35768 ft 477 kts 351°
2026-04-26 02:26 41.63552 -120.41995 35763 ft 477 kts 351°
2026-04-26 02:26 41.70165 -120.42658 35750 ft 476 kts 351°
2026-04-26 02:27 41.76774 -120.43322 35758 ft 476 kts 351°
2026-04-26 02:27 41.83370 -120.43985 35762 ft 475 kts 351°
2026-04-26 02:28 41.89924 -120.44647 35783 ft 475 kts 351°
2026-04-26 02:28 41.96516 -120.45313 35794 ft 475 kts 351°
2026-04-26 02:29 42.03107 -120.45981 35801 ft 475 kts 351°
2026-04-26 02:29 42.09695 -120.46650 35810 ft 475 kts 351°
2026-04-26 02:30 42.16282 -120.47320 35811 ft 475 kts 351°
2026-04-26 02:30 42.22875 -120.47992 35810 ft 475 kts 351°
2026-04-26 02:31 42.29462 -120.48665 35808 ft 475 kts 351°
2026-04-26 02:31 42.36043 -120.49338 35812 ft 474 kts 351°
2026-04-26 02:32 42.42619 -120.50013 35805 ft 474 kts 351°
2026-04-26 02:32 42.49188 -120.50810 35797 ft 470 kts 343°
2026-04-26 02:32 42.52244 -120.52212 35831 ft 460 kts 332°
2026-04-26 02:33 42.55165 -120.53996 35800 ft 460 kts 331°
2026-04-26 02:33 42.60969 -120.57648 35810 ft 460 kts 331°
2026-04-26 02:34 42.66798 -120.61266 35801 ft 461 kts 332°
2026-04-26 02:34 42.72650 -120.64842 35799 ft 461 kts 332°
2026-04-26 02:35 42.78503 -120.68402 35794 ft 461 kts 333°
2026-04-26 02:35 42.84354 -120.71966 35794 ft 460 kts 333°
2026-04-26 02:36 42.90198 -120.75536 35796 ft 460 kts 333°
2026-04-26 02:36 42.96033 -120.79110 35796 ft 460 kts 333°
2026-04-26 02:37 43.01865 -120.82690 35804 ft 459 kts 333°
2026-04-26 02:37 43.07694 -120.86275 35795 ft 459 kts 333°
2026-04-26 02:38 43.13519 -120.89865 35800 ft 459 kts 333°
2026-04-26 02:38 43.19336 -120.93458 35801 ft 459 kts 333°
2026-04-26 02:39 43.25152 -120.97058 35808 ft 458 kts 333°
2026-04-26 02:39 43.30971 -121.00667 35809 ft 458 kts 333°
2026-04-26 02:40 43.36783 -121.04279 35819 ft 458 kts 334°
2026-04-26 02:40 43.42592 -121.07898 35823 ft 458 kts 334°
2026-04-26 02:41 43.48398 -121.11521 35830 ft 458 kts 334°
2026-04-26 02:41 43.54200 -121.15151 35834 ft 458 kts 334°
2026-04-26 02:42 43.60002 -121.18788 35838 ft 458 kts 334°
2026-04-26 02:42 43.65765 -121.22409 35848 ft 458 kts 334°
2026-04-26 02:43 43.74463 -121.27887 35845 ft 458 kts 334°
2026-04-26 02:43 43.80264 -121.31550 35850 ft 458 kts 334°
2026-04-26 02:44 43.86061 -121.35217 35849 ft 458 kts 334°
2026-04-26 02:44 43.91850 -121.38887 35844 ft 457 kts 334°
2026-04-26 02:45 43.97636 -121.42564 35842 ft 457 kts 334°
2026-04-26 02:45 44.03410 -121.46241 35846 ft 457 kts 334°
2026-04-26 02:46 44.08210 -121.49304 35851 ft 456 kts 334°
2026-04-26 02:46 44.13982 -121.52995 35853 ft 456 kts 334°
2026-04-26 02:47 44.19747 -121.56689 35870 ft 456 kts 334°
2026-04-26 02:47 44.25516 -121.60393 35869 ft 456 kts 334°
2026-04-26 02:48 44.31275 -121.64099 35873 ft 456 kts 335°
2026-04-26 02:48 44.37035 -121.67815 35873 ft 456 kts 335°
2026-04-26 02:49 44.42791 -121.71535 35871 ft 456 kts 335°
2026-04-26 02:49 44.48548 -121.75264 35873 ft 456 kts 335°
2026-04-26 02:50 44.54300 -121.78998 35872 ft 456 kts 335°
2026-04-26 02:50 44.60049 -121.82738 35876 ft 456 kts 335°
2026-04-26 02:51 44.65802 -121.86489 35871 ft 456 kts 335°
2026-04-26 02:51 44.71555 -121.90249 35866 ft 456 kts 335°
2026-04-26 02:52 44.77304 -121.94013 35865 ft 456 kts 335°
2026-04-26 02:52 44.83047 -121.97783 35858 ft 455 kts 335°
2026-04-26 02:53 44.88788 -122.01559 35857 ft 455 kts 335°
2026-04-26 02:53 44.94522 -122.05339 35860 ft 455 kts 335°
2026-04-26 02:54 45.00215 -122.09101 35849 ft 455 kts 335°
2026-04-26 02:54 45.05938 -122.12891 35853 ft 454 kts 335°
2026-04-26 02:55 45.11662 -122.16690 35849 ft 454 kts 335°
2026-04-26 02:55 45.17376 -122.20491 35849 ft 454 kts 335°
2026-04-26 02:56 45.23080 -122.24294 35733 ft 448 kts 335°
2026-04-26 02:56 45.25872 -122.26158 35349 ft 440 kts 335°
2026-04-26 02:56 45.28635 -122.28005 34799 ft 439 kts 335°
2026-04-26 02:57 45.31404 -122.29857 34259 ft 438 kts 335°
2026-04-26 02:57 45.34146 -122.31694 33830 ft 434 kts 335°
2026-04-26 02:57 45.36854 -122.33510 33375 ft 428 kts 335°
2026-04-26 02:57 45.39538 -122.35312 32898 ft 424 kts 335°
2026-04-26 02:58 45.42195 -122.37098 32406 ft 420 kts 335°
2026-04-26 02:58 45.44823 -122.38866 31936 ft 417 kts 335°
2026-04-26 02:58 45.47441 -122.40629 31457 ft 413 kts 335°
2026-04-26 02:58 45.50027 -122.42373 31017 ft 410 kts 336°
2026-04-26 02:59 45.52591 -122.44104 30588 ft 406 kts 336°
2026-04-26 02:59 45.55135 -122.45822 30166 ft 402 kts 336°
2026-04-26 02:59 45.57656 -122.47526 29725 ft 399 kts 336°
2026-04-26 02:59 45.60152 -122.49216 29205 ft 395 kts 335°
2026-04-26 03:00 45.62626 -122.50893 28684 ft 392 kts 335°
2026-04-26 03:00 45.65082 -122.52558 28175 ft 389 kts 335°
2026-04-26 03:00 45.67519 -122.54213 27673 ft 386 kts 335°
2026-04-26 03:00 45.69941 -122.55858 27198 ft 384 kts 335°
2026-04-26 03:01 45.72343 -122.57491 26713 ft 381 kts 335°
2026-04-26 03:01 45.74715 -122.59048 26207 ft 379 kts 340°
2026-04-26 03:01 45.77260 -122.59945 25688 ft 376 kts 350°
2026-04-26 03:01 45.79889 -122.60576 24504 ft 392 kts 351°
2026-04-26 03:02 45.82646 -122.61199 23257 ft 409 kts 351°
2026-04-26 03:02 45.85502 -122.61852 21848 ft 422 kts 351°
2026-04-26 03:02 45.88431 -122.62543 20665 ft 430 kts 351°
2026-04-26 03:02 45.91382 -122.63258 19839 ft 428 kts 351°
2026-04-26 03:03 45.94287 -122.63974 19211 ft 421 kts 351°
2026-04-26 03:03 45.97152 -122.64686 18598 ft 414 kts 351°
2026-04-26 03:03 45.99972 -122.65389 17918 ft 409 kts 351°
2026-04-26 03:03 46.02766 -122.66085 17118 ft 406 kts 351°
2026-04-26 03:04 46.05533 -122.66775 16368 ft 402 kts 351°
2026-04-26 03:04 46.08273 -122.67458 15643 ft 398 kts 351°
2026-04-26 03:04 46.10992 -122.68111 14939 ft 394 kts 352°
2026-04-26 03:04 46.13695 -122.68661 14235 ft 391 kts 353°
2026-04-26 03:05 46.16382 -122.69168 13521 ft 388 kts 353°
2026-04-26 03:05 46.19049 -122.69670 12815 ft 384 kts 353°
2026-04-26 03:05 46.21678 -122.70174 12206 ft 379 kts 353°
2026-04-26 03:05 46.24291 -122.70685 12015 ft 380 kts 352°
2026-04-26 03:06 46.26908 -122.71203 11925 ft 380 kts 352°
2026-04-26 03:06 46.29518 -122.71721 11909 ft 378 kts 352°
2026-04-26 03:06 46.32127 -122.72235 11900 ft 379 kts 353°
2026-04-26 03:06 46.34756 -122.72530 11901 ft 379 kts 358°
2026-04-26 03:07 46.37388 -122.72620 11903 ft 378 kts 359°
2026-04-26 03:07 46.40011 -122.72653 11892 ft 377 kts 359°
2026-04-26 03:07 46.42627 -122.72686 11909 ft 376 kts 359°
2026-04-26 03:07 46.45243 -122.72737 11910 ft 375 kts 359°
2026-04-26 03:08 46.47855 -122.72806 11909 ft 376 kts 359°
2026-04-26 03:08 46.50473 -122.72888 11912 ft 376 kts 359°
2026-04-26 03:08 46.53084 -122.72977 11916 ft 376 kts 359°
2026-04-26 03:08 46.55703 -122.73070 11917 ft 376 kts 359°
2026-04-26 03:09 46.58324 -122.73165 11911 ft 377 kts 359°
2026-04-26 03:09 46.60940 -122.73260 11915 ft 377 kts 359°
2026-04-26 03:09 46.63560 -122.73355 11914 ft 377 kts 359°
2026-04-26 03:09 46.66181 -122.73450 11914 ft 377 kts 359°
2026-04-26 03:10 46.68801 -122.73547 11917 ft 376 kts 358°
2026-04-26 03:10 46.71421 -122.73652 11917 ft 377 kts 359°
2026-04-26 03:10 46.74042 -122.73752 11910 ft 377 kts 359°
2026-04-26 03:10 46.76665 -122.73745 11893 ft 377 kts
2026-04-26 03:11 46.79173 -122.72723 11920 ft 376 kts 24°
2026-04-26 03:11 46.81371 -122.70655 11928 ft 377 kts 37°
2026-04-26 03:11 46.83395 -122.68203 11924 ft 378 kts 38°
2026-04-26 03:11 46.85389 -122.65698 11909 ft 379 kts 41°
2026-04-26 03:12 46.87279 -122.63064 11916 ft 380 kts 43°
2026-04-26 03:12 46.89174 -122.60379 11904 ft 380 kts 43°
2026-04-26 03:12 46.91077 -122.57707 11629 ft 370 kts 43°
2026-04-26 03:12 46.92888 -122.55022 10983 ft 369 kts 45°
2026-04-26 03:13 46.94640 -122.52349 10268 ft 369 kts 45°
2026-04-26 03:13 46.96379 -122.49702 10030 ft 350 kts 45°
2026-04-26 03:13 46.98028 -122.47231 9879 ft 327 kts 42°
2026-04-26 03:13 46.99808 -122.45399 9742 ft 307 kts 29°
2026-04-26 03:14 47.01619 -122.43922 9620 ft 291 kts 29°
2026-04-26 03:14 47.03309 -122.42541 9549 ft 280 kts 29°
2026-04-26 03:14 47.04973 -122.41162 9380 ft 270 kts 30°
2026-04-26 03:14 47.06591 -122.39808 8890 ft 268 kts 30°
2026-04-26 03:15 47.08214 -122.38440 8288 ft 269 kts 30°
2026-04-26 03:15 47.09828 -122.37074 7768 ft 268 kts 30°
2026-04-26 03:15 47.11438 -122.35713 7253 ft 266 kts 30°
2026-04-26 03:15 47.13108 -122.34652 6642 ft 259 kts 13°
2026-04-26 03:16 47.14866 -122.34268 6299 ft 253 kts
2026-04-26 03:16 47.16642 -122.33903 6033 ft 261 kts
2026-04-26 03:16 47.18449 -122.33514 5755 ft 261 kts
2026-04-26 03:16 47.20178 -122.33132 5433 ft 241 kts
2026-04-26 03:17 47.21783 -122.32771 5132 ft 226 kts
2026-04-26 03:17 47.23298 -122.32428 4839 ft 216 kts
2026-04-26 03:17 47.24765 -122.32097 4552 ft 214 kts
2026-04-26 03:17 47.26281 -122.31938 3834 ft 222 kts
2026-04-26 03:18 47.27760 -122.31935 3452 ft 211 kts 360°
2026-04-26 03:18 47.29181 -122.31981 3215 ft 194 kts
2026-04-26 03:18 47.30501 -122.31969 2861 ft 186 kts
2026-04-26 03:18 47.31778 -122.31936 2430 ft 182 kts
2026-04-26 03:19 47.33008 -122.31909 2209 ft 165 kts
2026-04-26 03:19 47.34087 -122.31895 2094 ft 148 kts 360°
2026-04-26 03:19 47.35103 -122.31885 1925 ft 144 kts 359°
2026-04-26 03:19 47.36105 -122.31877 1745 ft 144 kts 359°
2026-04-26 03:20 47.37096 -122.31869 1594 ft 143 kts 359°
2026-04-26 03:20 47.38093 -122.31861 1481 ft 143 kts 360°
2026-04-26 03:20 47.39100 -122.31852 1308 ft 147 kts 360°
2026-04-26 03:20 47.40104 -122.31844 1138 ft 144 kts 359°
2026-04-26 03:21 47.40526 -122.31840 1036 ft 144 kts 359°